ITY170 LICJ-LIPE

Flight info

Callsign ITY170
Flight time 1h 5m
Altitude 34000
Route GIANO5Q GIANO DCT AMTEL DCT IBRID/N0350F180 L995 LOMED LOMED3M
Aircraft A320/M-SDE3FGHIRWY/5566

Departure

Time 2026-04-28 22:18
Airport Falcone–Borsellino Airport (LICJ)

Arrival

Time 2026-04-28 23:24
Airport Bologna Guglielmo Marconi Airport (LIPE)
Time Latitude Longitude Altitude Speed Heading
2026-04-28 21:46 38.18597 13.10728 65 ft 0 kts 337°
2026-04-28 22:12 38.18593 13.10729 57 ft 3 kts 337°
2026-04-28 22:13 38.18576 13.10739 61 ft 3 kts 337°
2026-04-28 22:13 38.18558 13.10748 56 ft 3 kts 337°
2026-04-28 22:13 38.18541 13.10757 58 ft 3 kts 337°
2026-04-28 22:13 38.18524 13.10766 58 ft 3 kts 337°
2026-04-28 22:14 38.18516 13.10770 57 ft 0 kts 337°
2026-04-28 22:15 38.18519 13.10767 57 ft 2 kts 328°
2026-04-28 22:15 38.18514 13.10737 60 ft 8 kts 241°
2026-04-28 22:15 38.18470 13.10623 57 ft 20 kts 244°
2026-04-28 22:16 38.18347 13.10461 63 ft 31 kts 221°
2026-04-28 22:16 38.18166 13.10237 58 ft 41 kts 243°
2026-04-28 22:16 38.18065 13.09909 64 ft 26 kts 272°
2026-04-28 22:16 38.18145 13.09823 61 ft 11 kts 340°
2026-04-28 22:17 38.18202 13.09798 61 ft 6 kts 340°
2026-04-28 22:17 38.18260 13.09768 63 ft 14 kts 331°
2026-04-28 22:17 38.18335 13.09650 55 ft 18 kts 290°
2026-04-28 22:17 38.18322 13.09517 46 ft 14 kts 197°
2026-04-28 22:18 38.18135 13.09420 48 ft 59 kts 204°
2026-04-28 22:18 38.17546 13.09089 51 ft 126 kts 204°
2026-04-28 22:18 38.16587 13.08560 395 ft 159 kts 204°
2026-04-28 22:18 38.15772 13.07767 1203 ft 164 kts 210°
2026-04-28 22:19 38.14634 13.07181 1690 ft 190 kts 198°
2026-04-28 22:19 38.13514 13.06268 2510 ft 195 kts 233°
2026-04-28 22:19 38.13238 13.04611 3366 ft 201 kts 275°
2026-04-28 22:19 38.13853 13.03003 4069 ft 210 kts 313°
2026-04-28 22:20 38.15084 13.01974 4736 ft 220 kts 329°
2026-04-28 22:20 38.16503 13.00978 4989 ft 249 kts 328°
2026-04-28 22:20 38.18061 12.99754 5360 ft 277 kts 326°
2026-04-28 22:20 38.19694 12.98439 6389 ft 274 kts 327°
2026-04-28 22:21 38.21312 12.97168 7452 ft 273 kts 327°
2026-04-28 22:21 38.22944 12.95881 8300 ft 278 kts 326°
2026-04-28 22:21 38.24587 12.94579 9228 ft 279 kts 326°
2026-04-28 22:21 38.26245 12.93267 10087 ft 281 kts 326°
2026-04-28 22:22 38.27918 12.91942 10834 ft 286 kts 326°
2026-04-28 22:22 38.29634 12.90580 11209 ft 304 kts 326°
2026-04-28 22:22 38.31493 12.89105 11483 ft 325 kts 326°
2026-04-28 22:22 38.33454 12.87552 12005 ft 334 kts 326°
2026-04-28 22:23 38.35424 12.85992 12870 ft 334 kts 326°
2026-04-28 22:23 38.37426 12.84400 13524 ft 341 kts 326°
2026-04-28 22:23 38.39445 12.82793 14197 ft 344 kts 326°
2026-04-28 22:23 38.41484 12.81173 14872 ft 346 kts 326°
2026-04-28 22:24 38.43538 12.79540 15505 ft 349 kts 326°
2026-04-28 22:24 38.45603 12.77894 16140 ft 351 kts 326°
2026-04-28 22:24 38.47685 12.76235 16764 ft 354 kts 326°
2026-04-28 22:24 38.49755 12.74584 17370 ft 356 kts 326°
2026-04-28 22:25 38.51868 12.72897 17947 ft 360 kts 327°
2026-04-28 22:25 38.54003 12.71192 18507 ft 363 kts 327°
2026-04-28 22:25 38.56155 12.69473 18983 ft 366 kts 327°
2026-04-28 22:25 38.58321 12.67740 19475 ft 368 kts 326°
2026-04-28 22:26 38.60502 12.65994 19944 ft 371 kts 326°
2026-04-28 22:26 38.62698 12.64236 20421 ft 374 kts 326°
2026-04-28 22:26 38.64916 12.62457 20884 ft 377 kts 326°
2026-04-28 22:26 38.67144 12.60671 21343 ft 379 kts 326°
2026-04-28 22:27 38.69360 12.58893 21785 ft 382 kts 326°
2026-04-28 22:27 38.71618 12.57077 22248 ft 384 kts 326°
2026-04-28 22:27 38.73889 12.55251 22668 ft 386 kts 326°
2026-04-28 22:27 38.76308 12.53738 23119 ft 391 kts 343°
2026-04-28 22:28 38.79007 12.53142 23521 ft 396 kts 350°
2026-04-28 22:28 38.81753 12.52679 23852 ft 399 kts 350°
2026-04-28 22:28 38.84508 12.52148 24199 ft 400 kts 349°
2026-04-28 22:28 38.87264 12.51575 24528 ft 403 kts 349°
2026-04-28 22:29 38.90047 12.51025 24851 ft 405 kts 349°
2026-04-28 22:29 38.92853 12.50495 25169 ft 407 kts 349°
2026-04-28 22:29 38.95660 12.49951 25484 ft 409 kts 349°
2026-04-28 22:29 38.98451 12.49394 25782 ft 412 kts 349°
2026-04-28 22:30 39.01291 12.48834 26088 ft 413 kts 349°
2026-04-28 22:30 39.04139 12.48280 26380 ft 415 kts 349°
2026-04-28 22:30 39.07009 12.47719 26665 ft 418 kts 349°
2026-04-28 22:30 39.09886 12.47151 26948 ft 420 kts 349°
2026-04-28 22:31 39.12780 12.46580 27223 ft 422 kts 349°
2026-04-28 22:31 39.15687 12.46009 27498 ft 424 kts 349°
2026-04-28 22:31 39.18612 12.45434 27771 ft 425 kts 349°
2026-04-28 22:31 39.21547 12.44855 28031 ft 427 kts 349°
2026-04-28 22:32 39.24496 12.44272 28294 ft 429 kts 350°
2026-04-28 22:32 39.27456 12.43687 28548 ft 431 kts 350°
2026-04-28 22:32 39.30433 12.43099 28800 ft 433 kts 350°
2026-04-28 22:32 39.33376 12.42517 29048 ft 434 kts 350°
2026-04-28 22:33 39.36373 12.41923 29290 ft 436 kts 350°
2026-04-28 22:33 39.39379 12.41327 29525 ft 438 kts 350°
2026-04-28 22:33 39.42396 12.40729 29763 ft 440 kts 350°
2026-04-28 22:33 39.45429 12.40127 29989 ft 441 kts 350°
2026-04-28 22:34 39.48470 12.39522 30207 ft 443 kts 350°
2026-04-28 22:34 39.51521 12.38915 30395 ft 444 kts 350°
2026-04-28 22:34 39.54585 12.38305 30580 ft 446 kts 350°
2026-04-28 22:34 39.57660 12.37693 30787 ft 447 kts 350°
2026-04-28 22:35 39.60734 12.37080 30975 ft 448 kts 350°
2026-04-28 22:35 39.62783 12.36670 31091 ft 449 kts 350°
2026-04-28 22:35 39.65883 12.36051 31274 ft 450 kts 349°
2026-04-28 22:35 39.68994 12.35430 31451 ft 452 kts 349°
2026-04-28 22:36 39.72106 12.34807 31624 ft 453 kts 349°
2026-04-28 22:36 39.75226 12.34181 31802 ft 454 kts 349°
2026-04-28 22:36 39.78350 12.33556 32009 ft 454 kts 349°
2026-04-28 22:36 39.81474 12.32930 32269 ft 454 kts 349°
2026-04-28 22:37 39.84592 12.32303 32535 ft 453 kts 349°
2026-04-28 22:37 39.87701 12.31677 32754 ft 452 kts 349°
2026-04-28 22:37 39.90780 12.31058 32998 ft 452 kts 349°
2026-04-28 22:37 39.93885 12.30433 33238 ft 451 kts 349°
2026-04-28 22:38 39.96985 12.29808 33469 ft 451 kts 349°
2026-04-28 22:38 40.00089 12.29181 33701 ft 450 kts 349°
2026-04-28 22:38 40.03182 12.28557 33905 ft 450 kts 349°
2026-04-28 22:38 40.06285 12.27930 34011 ft 453 kts 349°
2026-04-28 22:39 40.09417 12.27295 34019 ft 457 kts 349°
2026-04-28 22:39 40.15767 12.26009 34024 ft 466 kts 349°
2026-04-28 22:40 40.22234 12.24696 34027 ft 474 kts 349°
2026-04-28 22:40 40.28797 12.23362 34074 ft 480 kts 349°
2026-04-28 22:41 40.35380 12.22020 34076 ft 480 kts 349°
2026-04-28 22:41 40.41969 12.20675 34075 ft 478 kts 349°
2026-04-28 22:42 40.48542 12.19329 34073 ft 478 kts 349°
2026-04-28 22:42 40.55119 12.17982 34076 ft 478 kts 349°
2026-04-28 22:43 40.61696 12.16630 34077 ft 478 kts 349°
2026-04-28 22:43 40.68270 12.15278 34075 ft 478 kts 349°
2026-04-28 22:44 40.74842 12.13921 34081 ft 478 kts 349°
2026-04-28 22:44 40.81378 12.12571 34075 ft 478 kts 349°
2026-04-28 22:45 40.87957 12.11209 34074 ft 478 kts 349°
2026-04-28 22:45 40.94530 12.09845 34076 ft 478 kts 349°
2026-04-28 22:46 41.01095 12.08480 34076 ft 477 kts 349°
2026-04-28 22:46 41.07663 12.07112 34076 ft 476 kts 349°
2026-04-28 22:47 41.14206 12.05747 34074 ft 476 kts 349°
2026-04-28 22:47 41.20700 12.04388 34068 ft 475 kts 349°
2026-04-28 22:48 41.27233 12.03018 34065 ft 476 kts 349°
2026-04-28 22:48 41.33780 12.01645 34067 ft 476 kts 349°
2026-04-28 22:49 41.40340 12.00263 34062 ft 476 kts 349°
2026-04-28 22:49 41.46891 11.98882 34062 ft 476 kts 349°
2026-04-28 22:50 41.53427 11.97501 34061 ft 475 kts 349°
2026-04-28 22:50 41.59923 11.96126 34057 ft 475 kts 349°
2026-04-28 22:51 41.66446 11.94741 34055 ft 474 kts 349°
2026-04-28 22:51 41.72963 11.93356 34057 ft 473 kts 349°
2026-04-28 22:52 41.79480 11.91968 34142 ft 475 kts 349°
2026-04-28 22:52 41.86011 11.90574 34158 ft 475 kts 349°
2026-04-28 22:53 41.92515 11.89182 34163 ft 475 kts 349°
2026-04-28 22:53 41.99053 11.87781 34155 ft 476 kts 349°
2026-04-28 22:54 42.05595 11.86375 34135 ft 476 kts 349°
2026-04-28 22:54 42.12129 11.84970 34111 ft 474 kts 349°
2026-04-28 22:55 42.18652 11.83562 34086 ft 474 kts 348°
2026-04-28 22:55 42.25127 11.82162 34071 ft 473 kts 348°
2026-04-28 22:56 42.31644 11.80751 34077 ft 473 kts 348°
2026-04-28 22:56 42.38147 11.79339 34084 ft 473 kts 348°
2026-04-28 22:57 42.44522 11.77262 34086 ft 469 kts 337°
2026-04-28 22:57 42.50505 11.73914 34094 ft 468 kts 336°
2026-04-28 22:58 42.56734 11.71080 34096 ft 469 kts 340°
2026-04-28 22:58 42.62881 11.68151 34091 ft 468 kts 337°
2026-04-28 22:59 42.68991 11.65244 34098 ft 469 kts 339°
2026-04-28 22:59 42.75156 11.62341 34095 ft 469 kts 338°
2026-04-28 23:00 42.81313 11.59386 34095 ft 469 kts 339°
2026-04-28 23:00 42.87476 11.56471 34095 ft 468 kts 338°
2026-04-28 23:01 42.93608 11.53523 34092 ft 467 kts 338°
2026-04-28 23:01 42.99748 11.50596 34093 ft 467 kts 338°
2026-04-28 23:02 43.05790 11.47703 34084 ft 443 kts 340°
2026-04-28 23:02 43.08725 11.46549 33285 ft 439 kts 343°
2026-04-28 23:02 43.11742 11.45599 31957 ft 449 kts 345°
2026-04-28 23:02 43.14810 11.44659 30754 ft 454 kts 344°
2026-04-28 23:03 43.17872 11.43581 29530 ft 456 kts 342°
2026-04-28 23:03 43.20913 11.42465 28185 ft 460 kts 343°
2026-04-28 23:03 43.24058 11.41395 27232 ft 456 kts 344°
2026-04-28 23:03 43.27069 11.40414 27013 ft 434 kts 343°
2026-04-28 23:04 43.29948 11.39426 25986 ft 433 kts 342°
2026-04-28 23:04 43.35742 11.37383 24459 ft 423 kts 343°
2026-04-28 23:04 43.38590 11.36423 23643 ft 419 kts 343°
2026-04-28 23:05 43.41407 11.35456 22770 ft 414 kts 342°
2026-04-28 23:05 43.44181 11.34487 21948 ft 409 kts 342°
2026-04-28 23:05 43.46920 11.33534 21117 ft 404 kts 343°
2026-04-28 23:05 43.49640 11.32596 20303 ft 400 kts 343°
2026-04-28 23:06 43.52327 11.31668 19528 ft 396 kts 343°
2026-04-28 23:06 43.54982 11.30745 18774 ft 392 kts 343°
2026-04-28 23:06 43.57616 11.29828 17992 ft 387 kts 343°
2026-04-28 23:06 43.60186 11.28935 17146 ft 384 kts 343°
2026-04-28 23:07 43.62770 11.28038 16352 ft 380 kts 344°
2026-04-28 23:07 43.65323 11.27149 15570 ft 376 kts 344°
2026-04-28 23:07 43.67856 11.26265 14797 ft 373 kts 344°
2026-04-28 23:07 43.70364 11.25390 14047 ft 370 kts 345°
2026-04-28 23:08 43.72859 11.24519 13247 ft 367 kts 345°
2026-04-28 23:08 43.75326 11.23658 12455 ft 364 kts 345°
2026-04-28 23:08 43.77779 11.22800 11676 ft 361 kts 345°
2026-04-28 23:08 43.80206 11.21950 10931 ft 358 kts 345°
2026-04-28 23:09 43.82590 11.21115 10214 ft 356 kts 345°
2026-04-28 23:09 43.84976 11.20279 9468 ft 353 kts 345°
2026-04-28 23:09 43.87331 11.19454 9020 ft 341 kts 345°
2026-04-28 23:09 43.89645 11.18641 9051 ft 351 kts 345°
2026-04-28 23:10 43.91992 11.17815 9049 ft 345 kts 345°
2026-04-28 23:10 43.94351 11.16985 9057 ft 350 kts 345°
2026-04-28 23:10 43.96706 11.16157 9056 ft 352 kts 345°
2026-04-28 23:10 43.99068 11.15326 9055 ft 348 kts 345°
2026-04-28 23:11 44.01440 11.14488 9059 ft 351 kts 345°
2026-04-28 23:11 44.03793 11.13658 9062 ft 351 kts 345°
2026-04-28 23:11 44.06159 11.12823 9063 ft 349 kts 345°
2026-04-28 23:11 44.08521 11.11987 9066 ft 350 kts 346°
2026-04-28 23:12 44.10876 11.11154 9069 ft 350 kts 345°
2026-04-28 23:12 44.13240 11.10319 9069 ft 349 kts 345°
2026-04-28 23:12 44.15606 11.09487 9070 ft 350 kts 346°
2026-04-28 23:12 44.18017 11.09226 9074 ft 350 kts
2026-04-28 23:13 44.20318 11.10147 9074 ft 348 kts 21°
2026-04-28 23:13 44.22521 11.11388 8390 ft 342 kts 23°
2026-04-28 23:13 44.24465 11.12532 7586 ft 346 kts 23°
2026-04-28 23:13 44.26673 11.13795 6980 ft 339 kts 22°
2026-04-28 23:14 44.28851 11.15003 6248 ft 336 kts 22°
2026-04-28 23:14 44.31016 11.16214 5515 ft 333 kts 22°
2026-04-28 23:14 44.33142 11.17422 4995 ft 325 kts 23°
2026-04-28 23:14 44.35305 11.18170 4994 ft 330 kts
2026-04-28 23:15 44.37511 11.17512 4778 ft 320 kts 336°
2026-04-28 23:15 44.39474 11.15985 3820 ft 327 kts 327°
2026-04-28 23:15 44.41385 11.14312 3252 ft 320 kts 328°
2026-04-28 23:15 44.43295 11.12819 2975 ft 305 kts 332°
2026-04-28 23:16 44.45092 11.11490 2993 ft 282 kts 331°
2026-04-28 23:16 44.46788 11.10174 2995 ft 276 kts 330°
2026-04-28 23:16 44.48427 11.08875 2993 ft 270 kts 330°
2026-04-28 23:16 44.50059 11.07604 2990 ft 262 kts 331°
2026-04-28 23:17 44.51595 11.06416 2992 ft 243 kts 331°
2026-04-28 23:17 44.53033 11.05294 2999 ft 229 kts 330°
2026-04-28 23:17 44.54378 11.04243 3001 ft 222 kts 331°
2026-04-28 23:17 44.55714 11.03201 3002 ft 217 kts 331°
2026-04-28 23:18 44.57034 11.02171 3002 ft 216 kts 331°
2026-04-28 23:18 44.58342 11.01148 3002 ft 215 kts 331°
2026-04-28 23:18 44.59741 11.00468 2993 ft 214 kts 359°
2026-04-28 23:18 44.61133 11.01064 2994 ft 211 kts 35°
2026-04-28 23:19 44.62037 11.02625 2943 ft 204 kts 68°
2026-04-28 23:19 44.62124 11.04572 2523 ft 205 kts 107°
2026-04-28 23:19 44.61576 11.06339 2491 ft 191 kts 115°
2026-04-28 23:19 44.61038 11.07964 2492 ft 175 kts 116°
2026-04-28 23:20 44.60528 11.09412 2488 ft 166 kts 117°
2026-04-28 23:20 44.60032 11.10801 2488 ft 151 kts 117°
2026-04-28 23:20 44.59558 11.12122 2488 ft 149 kts 117°
2026-04-28 23:20 44.59253 11.12973 2398 ft 149 kts 117°
2026-04-28 23:21 44.58796 11.14247 2210 ft 144 kts 117°
2026-04-28 23:21 44.58345 11.15504 2024 ft 143 kts 117°
2026-04-28 23:21 44.57898 11.16748 1841 ft 143 kts 117°
2026-04-28 23:21 44.57454 11.17987 1653 ft 142 kts 117°
2026-04-28 23:22 44.57011 11.19222 1463 ft 141 kts 117°
2026-04-28 23:22 44.56570 11.20449 1279 ft 140 kts 117°
2026-04-28 23:22 44.56132 11.21656 1083 ft 139 kts 117°
2026-04-28 23:22 44.55697 11.22863 893 ft 138 kts 116°
2026-04-28 23:23 44.55267 11.24064 707 ft 137 kts 115°
2026-04-28 23:23 44.54832 11.25273 527 ft 140 kts 116°
2026-04-28 23:23 44.54402 11.26467 347 ft 136 kts 115°
2026-04-28 23:23 44.53989 11.27617 173 ft 126 kts 115°
2026-04-28 23:24 44.53641 11.28618 129 ft 98 kts 114°
2026-04-28 23:24 44.53440 11.29154 126 ft 36 kts 117°
2026-04-28 23:24 44.53342 11.29430 126 ft 28 kts 117°
2026-04-28 23:24 44.53226 11.29539 124 ft 19 kts 224°
2026-04-28 23:25 44.53199 11.29407 124 ft 11 kts 233°
2026-04-28 23:25 44.53147 11.29368 124 ft 6 kts 197°
2026-04-28 23:25 44.53117 11.29352 125 ft 4 kts 204°
2026-04-28 23:25 44.53086 11.29331 124 ft 7 kts 206°
2026-04-28 23:26 44.53070 11.29319 124 ft 1 kts 206°